Regional Weather Roundup
Issued by NWS Jackson, KY

Home | Current Version | Previous Version | Graphics & Text | Print | Product List | Glossary On
Versions: 1 2 3 4 5 6 7 8 9 10 11 12 13 14 15 16 17 18 19 20 21 22 23 24 25 26 27 28 29 30 31 32 33 34 35 36 37 38 39 40 41 42 43 44 45 46 47 48 49 50
000
ASUS43 KJKL 212010
RWRJKL

EAST KENTUCKY HOURLY WEATHER ROUNDUP
NATIONAL WEATHER SERVICE JACKSON KY
400 PM EDT SAT APR 21 2018

NOTE: "FAIR" INDICATES FEW OR NO CLOUDS BELOW 12,000 FEET WITH
NO SIGNIFICANT WEATHER AND/OR OBSTRUCTIONS TO VISIBILITY.

* THESE REPORTS ARE NOT UNDER NWS QUALITY CONTROL AND MAY NOT
  REPORT WEATHER SUCH AS PRECIPITATION AND FOG.

KYZ079-080-083-085-087-088-110-112-115-119-120-212100
...EASTERN KENTUCKY...

CITY           SKY/WX    TMP DP  RH WIND       PRES   REMARKS
JACKSON          N/A     70  26  19 VRB3      30.28F
LONDON           N/A     70  28  21 VRB3      30.27F
SOMERSET*        N/A     70  32  24 MISG      30.28F
MONTICELLO*      N/A     70  38  31 N17       30.28F
WILLIAMSBURG*    N/A     72  34  25 NE8       30.25F
MIDDLESBORO*     N/A     72  30  20 CALM      30.26F
HARLAN APT*      N/A     72  19  13 SE5       30.26F
PIKE CO APT*     N/A     67  30  24 N7        30.28F
BIG SANDY APT*   N/A     68  24  19 CALM      30.29F
MOREHEAD APT*    N/A     68  16  13 VRB6G12   30.32F
ASHLAND*         N/A     66  31  27 W5        30.31F
$$

KYZ035-036-041-042-044-050-067-078-099-212100
...CENTRAL KENTUCKY...

CITY           SKY/WX    TMP DP  RH WIND       PRES   REMARKS
MT STERLING*     N/A     64  30  27 N6        30.33F
FLEMING/MASON*   N/A     64  22  20 N3        30.33F
DANVILLE*        N/A     66  34  30 CALM      30.29F
LEXINGTON        N/A     66  33  29 N6        30.30F
FRANKFORT        N/A     66  29  24 VRB7      30.29F
LOUISVILLE     PTSUNNY   70  31  23 N6        30.27F
GLASGOW*         N/A     72  36  26 CALM      30.25F
BOWLING GREEN    N/A     70  35  27 VRB5      30.25F
$$

KYZ091>093-OHZ055-061-077-WVZ005-015-034-035-042-212100
...SOUTHERN OHIO/WEST VIRGINIA...

CITY           SKY/WX    TMP DP  RH WIND       PRES   REMARKS
COVINGTON      CLOUDY    61  20  20 E5        30.33F
COLUMBUS       CLOUDY    59  18  20 VRB5      30.37F
DAYTON         CLOUDY    56  21  25 E8        30.37F
WILMINGTON       N/A     57  28  33 NE8       30.35F
HUNTINGTON       N/A     68  16  13 NE3       30.30F
CHARLESTON       N/A     69  20  15 NE6       30.29F
PINEVILLE*       N/A     71  19  14 MISG      30.32F
BECKLEY          N/A     66  22  18 NW5       30.29F
BLUEFIELD        N/A     63  21  20 W7        30.30F
LOGAN CO APT*    N/A     68  18  14 SW5       30.28F
$$

VAZ002-007-008-TNZ017-027-036-066-071-212100
...SOUTHWEST VIRGINIA/EAST TENNESSEE...

CITY           SKY/WX    TMP DP  RH WIND       PRES   REMARKS
WISE*            N/A     68  30  24 S5        30.30F
JONESVILLE*      N/A     72  25  17 SW5       30.29F
ABINGDON*        N/A     71  25  18 NW3       30.29F
BRISTOL          N/A     72  31  22 NE5       30.27F
MORRISTOWN*    CLEAR     72  27  18 VRB3      30.26F
SEVIERVILLE*   CLEAR     72  32  23 NW3G12    30.25F
KNOXVILLE      PTSUNNY   71  33  24 VRB3      30.25F
LAFOLLETTE*    CLEAR     72  34  25 SW5       30.29F
OAK RIDGE        N/A     73  30  20 CALM      30.26F
CROSSVILLE       N/A     67  29  24 CALM      30.27F
NASHVILLE      PTSUNNY   74  35  24 E9        30.22F
$$

...KEY TO REMARKS...
VSB - VISIBILITY IN MILES
WCI - WIND CHILL INDEX
HX  - HEAT INDEX

$$



USA.gov is the U.S. government's official web portal to all federal, state and local government web resources and services.